Regional Weather Roundup
Issued by NWS

Home | Current Version | Previous Version | Graphics & Text | Print | Product List | Glossary On
Versions: 1 2 3 4 5 6 7 8 9 10 11 12 13 14 15 16 17 18 19 20 21 22 23 24 25 26 27 28 29 30 31 32 33 34 35 36 37 38 39 40 41 42 43 44 45 46 47 48 49 50
000
ASUS45 KPSR 030410
RWRAZ

ARIZONA HOURLY REGIONAL WEATHER ROUNDUP
NATIONAL WEATHER SERVICE PHOENIX AZ
900 PM MST SUN AUG 02 2015

NOTE: FAIR INDICATES FEW OR NO CLOUDS BELOW 12,000 FEET WITH NO
SIGNIFICANT WEATHER AND/OR OBSTRUCTIONS TO VISIBILITY.

AZZ001>003-036-030500-
NORTHWEST ARIZONA

CITY           SKY/WX    TMP DP  RH WIND       PRES   REMARKS
BULLHEAD CITY  CLEAR    104  43  12 S14       29.68R
KINGMAN        PTCLDY    84  45  25 NE3       29.93R
$$

AZZ004>008-015-016-018-030500-
NORTH CENTRAL ARIZONA

CITY           SKY/WX    TMP DP  RH WIND       PRES   REMARKS
GRAND CANYON   CLEAR     58  53  84 CALM      30.20S
WILLIAMS       CLEAR     61  55  82 S7        30.28R
PRESCOTT       PTCLDY    76  49  38 N6        30.07R
FLAGSTAFF      CLEAR     59  54  83 CALM      30.24R
PAYSON         CLEAR     72  54  53 CALM      30.11R
PAGE           PTCLDY    74  58  57 W3        30.04S
$$

AZZ009>014-017-030500-
NORTHEAST ARIZONA

CITY           SKY/WX    TMP DP  RH WIND       PRES   REMARKS
WINSLOW        PTCLDY    66  55  67 W8        30.10
SAINT JOHNS    MOCLDY    68  52  56 S9G21     30.17R
SHOW LOW       CLEAR     61  48  63 SE6       30.22F
$$

AZZ023-030500-
GREATER PHOENIX AREA

CITY           SKY/WX    TMP DP  RH WIND       PRES   REMARKS
PHOENIX        PTCLDY    99  52  20 SW6       29.71R
DEER VALLEY    CLEAR    100  47  16 W8        29.74R
SCOTTSDALE     CLEAR    100  45  15 SW6       29.76R
MESA-GATEWAY   PTCLDY    95  54  24 CALM      29.77R
CHANDLER       PTCLDY    99  52  20 SW7       29.73S
$$

AZZ027-028-030500-
SOUTHWEST MARICOPA COUNTY AND PINAL COUNTY

CITY           SKY/WX    TMP DP  RH WIND       PRES   REMARKS
CASA GRANDE    CLEAR     97  52  21 CALM      29.76R
GILA BEND      FAIR      98  48  18 SW7       29.70R
$$

AZZ503-504-507>509-030500-
SOUTHEAST ARIZONA

CITY           SKY/WX    TMP DP  RH WIND       PRES   REMARKS
TUCSON         CLEAR     93  55  27 N5        29.89R
DAVIS-MONTHAN  PTCLDY    92  55  28 N6        29.88R
NOGALES        MOCLDY    78  61  55 E3        30.01R
SIERRA VISTA   MOCLDY    78  55  44 VRB7      30.08R
DOUGLAS          N/A    N/A N/A N/A MISG      30.03R
SAFFORD        PTCLDY    84  57  39 NE10      29.91R
$$

AZZ020-021-025-026-031-030500-
SOUTHWEST ARIZONA

CITY           SKY/WX    TMP DP  RH WIND       PRES   REMARKS
YUMA           CLEAR     99  50  19 S8        29.68R
$$

CAZ031-033-041-043-047-048-061-030500-
SOUTHERN CALIFORNIA

CITY           SKY/WX    TMP DP  RH WIND       PRES   REMARKS
DOWNTOWN L.A.  CLEAR     71  62  73 CALM      29.83S
L.A. AIRPORT   PTCLDY    70  64  81 W9        29.84R
SAN DIEGO      MOCLDY    70  63  78 NW5       29.87S
BURBANK        CLEAR     75  62  64 E10       29.84R
ONTARIO        PTCLDY    76  63  64 SW9       29.85R
RIVERSIDE      CLEAR     78  62  57 W7        29.85R
PALM SPRINGS   CLEAR    101  53  20 NW18      29.70R
EL CENTRO NAS  CLEAR     99  36  11 S13       29.67R
IMPERIAL       CLEAR     99  41  13 W12       29.65R
BLYTHE         CLEAR    104  48  15 SW9       29.66R HX 100
NEEDLES        CLEAR    101  43  13 W13       29.70R
$$

NVZ020-UTZ003-030500-
SOUTHERN NEVADA-UTAH

CITY           SKY/WX    TMP DP  RH WIND       PRES   REMARKS
LAS VEGAS      PTCLDY    97  48  18 NE7       29.76R
SALT LAKE CITY CLOUDY    77  50  38 S13       29.97R
$$

NMZ009-TXZ055-030500-
NEW MEXICO-WEST TEXAS

CITY           SKY/WX    TMP DP  RH WIND       PRES   REMARKS
ALBUQUERQUE    MOCLDY    73  55  53 CALM      30.13R
EL PASO        TSTM      76  64  66 W14       30.04R
$$


........................KEY........................
SKY/WX - SKY CONDITION/WEATHER
TMP    - TEMPERATURE IN FAHRENHEIT
DP     - DEW POINT IN FAHRENHEIT
RH     - RELATIVE HUMIDITY IN PERCENT
WIND   - DIRECTION AND SPEED IN MILES PER HOUR (MPH)
VRB    - VARIABLE WIND DIRECTION
PRES   - MEAN SEA LEVEL PRESSURE IN INCHES OF MERCURY
         F - FALLING PRESSURE   R - RISING PRESSURE
         S - STEADY PRESSURE
VSB    - VISIBILITY IN MILES
HX     - HEAT INDEX IN FAHRENHEIT
WCI    - WIND CHILL INDEX IN FAHRENHEIT
TC     - TEMPERATURE IN CELSIUS WHICH IS ALSO KNOWN AS
         TEMPERATURE IN CENTIGRADE
AFB    - AIR FORCE BASE
         LUKE AFB IS LUKE AIR FORCE BASE
         DAVIS-MONTHAN IS DAVIS-MONTHAN AIR FORCE BASE
NAS    - NAVAL AIR STATION
         EL CENTRO NAS IS EL CENTRO NAVAL AIR STATION
N/A    - NOT AVAILABLE




USA.gov is the U.S. government's official web portal to all federal, state and local government web resources and services.